• In Netherlands
  • List of Countries
  • For 7 days
  • Water Temperature
  • Satellite Maps
  • Weather Map
  • Weather Widgets
  • user-avatar
    Login

    Hourly Weather Al-Budajji

    Today, 15 December, Friday

    Time Temperature Precipitation Wind Pressure Humidity
    00:00 +26°C° 0 mm 4 mps 765 mmHg 50%
    01:00 +26°C° 0 mm 5 mps 765 mmHg 51%
    02:00 +26°C° 0 mm 5 mps 765 mmHg 51%
    03:00 +26°C° 0 mm 5 mps 764 mmHg 52%
    04:00 +26°C° 0 mm 4 mps 764 mmHg 52%
    05:00 +26°C° 0 mm 4 mps 764 mmHg 52%
    06:00 +26°C° 0 mm 4 mps 765 mmHg 52%
    07:00 +26°C° 0 mm 5 mps 765 mmHg 52%
    08:00 +26°C° 0 mm 5 mps 765 mmHg 52%
    09:00 +26°C° 0 mm 6 mps 765 mmHg 53%
    10:00 +26°C° 0 mm 6 mps 766 mmHg 54%
    11:00 +26°C° 0 mm 6 mps 766 mmHg 55%
    12:00 +26°C° 0 mm 6 mps 766 mmHg 55%
    13:00 +26°C° 0 mm 7 mps 765 mmHg 56%
    14:00 +26°C° 0 mm 6 mps 765 mmHg 55%
    15:00 +26°C° 0 mm 6 mps 765 mmHg 54%
    16:00 +26°C° 0 mm 5 mps 764 mmHg 54%
    17:00 +26°C° 0 mm 4 mps 765 mmHg 52%
    18:00 +26°C° 0 mm 4 mps 765 mmHg 50%
    19:00 +27°C° 0 mm 3 mps 765 mmHg 48%
    20:00 +27°C° 0 mm 3 mps 765 mmHg 48%
    21:00 +27°C° 0 mm 3 mps 765 mmHg 48%
    22:00 +27°C° 0 mm 3 mps 766 mmHg 47%
    23:00 +27°C° 0 mm 3 mps 765 mmHg 50%

    Tomorrow, 16 December, Saturday

    Time Temperature Precipitation Wind Pressure Humidity
    00:00 +27°C° 0 mm 3 mps 765 mmHg 52%
    01:00 +27°C° 0 mm 4 mps 765 mmHg 54%
    02:00 +26°C° 0.9 mm 5 mps 765 mmHg 58%
    03:00 +26°C° 0.9 mm 6 mps 765 mmHg 62%
    04:00 +24°C° 0.9 mm 7 mps 765 mmHg 66%
    05:00 +26°C° 1.4 mm 7 mps 766 mmHg 65%
    06:00 +26°C° 1.4 mm 7 mps 766 mmHg 64%
    07:00 +26°C° 1.4 mm 6 mps 766 mmHg 63%
    08:00 +26°C° 1.9 mm 7 mps 766 mmHg 62%
    09:00 +24°C° 1.9 mm 7 mps 767 mmHg 62%
    10:00 +24°C° 1.9 mm 7 mps 767 mmHg 62%
    11:00 +24°C° 1.3 mm 7 mps 767 mmHg 62%
    12:00 +24°C° 1.3 mm 6 mps 767 mmHg 62%
    13:00 +25°C° 1.3 mm 5 mps 767 mmHg 62%
    14:00 +25°C° 0.6 mm 5 mps 767 mmHg 62%
    15:00 +25°C° 0.6 mm 5 mps 766 mmHg 62%
    16:00 +25°C° 0.6 mm 5 mps 766 mmHg 61%
    17:00 +24°C° 1.2 mm 6 mps 767 mmHg 63%
    18:00 +24°C° 1.2 mm 7 mps 767 mmHg 65%
    19:00 +24°C° 1.2 mm 7 mps 767 mmHg 67%
    20:00 +24°C° 1.3 mm 7 mps 767 mmHg 66%
    21:00 +24°C° 1.3 mm 7 mps 767 mmHg 65%
    22:00 +24°C° 1.3 mm 8 mps 768 mmHg 65%
    23:00 +24°C° 0.9 mm 7 mps 768 mmHg 65%

    Day after tomorrow, 17 December, Sunday

    Time Temperature Precipitation Wind Pressure Humidity
    00:00 +24°C° 0.9 mm 7 mps 768 mmHg 65%
    01:00 +24°C° 0.9 mm 7 mps 768 mmHg 65%
    02:00 +24°C° 1.7 mm 6 mps 767 mmHg 64%
    03:00 +24°C° 1.7 mm 6 mps 767 mmHg 63%
    04:00 +24°C° 1.7 mm 6 mps 767 mmHg 61%
    05:00 +23°C° 1.1 mm 6 mps 768 mmHg 62%
    06:00 +23°C° 1.1 mm 6 mps 768 mmHg 64%
    07:00 +23°C° 1.1 mm 6 mps 768 mmHg 65%
    08:00 +23°C° 1.4 mm 6 mps 769 mmHg 65%
    09:00 +23°C° 1.4 mm 6 mps 769 mmHg 65%
    10:00 +23°C° 1.4 mm 5 mps 770 mmHg 65%
    11:00 +23°C° 0.2 mm 5 mps 769 mmHg 64%
    12:00 +23°C° 0.2 mm 4 mps 769 mmHg 63%
    13:00 +23°C° 0.2 mm 4 mps 769 mmHg 62%
    14:00 +23°C° 0 mm 4 mps 768 mmHg 61%
    15:00 +23°C° 0 mm 4 mps 768 mmHg 61%
    16:00 +23°C° 0 mm 4 mps 768 mmHg 60%
    17:00 +23°C° 0 mm 4 mps 768 mmHg 60%
    18:00 +23°C° 0 mm 4 mps 768 mmHg 60%
    19:00 +23°C° 0 mm 4 mps 768 mmHg 59%
    20:00 +25°C° 0 mm 4 mps 768 mmHg 59%
    21:00 +25°C° 0 mm 4 mps 769 mmHg 58%
    22:00 +25°C° 0 mm 4 mps 769 mmHg 58%
    23:00 +25°C° 0.4 mm 4 mps 769 mmHg 58%

    18 December, Monday

    Time Temperature Precipitation Wind Pressure Humidity
    00:00 +25°C° 0.4 mm 4 mps 769 mmHg 58%
    01:00 +25°C° 0.4 mm 4 mps 769 mmHg 58%
    02:00 +25°C° 0.6 mm 4 mps 769 mmHg 59%
    03:00 +25°C° 0.6 mm 4 mps 769 mmHg 59%
    04:00 +25°C° 0.6 mm 4 mps 769 mmHg 59%
    05:00 +25°C° 0.4 mm 4 mps 769 mmHg 59%
    06:00 +25°C° 0.4 mm 5 mps 769 mmHg 59%
    07:00 +25°C° 0.4 mm 5 mps 770 mmHg 59%
    08:00 +25°C° 0.1 mm 5 mps 770 mmHg 59%
    09:00 +25°C° 0.1 mm 5 mps 770 mmHg 58%
    10:00 +25°C° 0.1 mm 4 mps 771 mmHg 58%
    11:00 +25°C° 0 mm 4 mps 770 mmHg 57%
    12:00 +25°C° 0 mm 4 mps 770 mmHg 56%
    13:00 +25°C° 0 mm 4 mps 769 mmHg 55%
    14:00 +26°C° 0 mm 4 mps 769 mmHg 55%
    15:00 +26°C° 0 mm 4 mps 769 mmHg 55%
    16:00 +26°C° 0 mm 4 mps 768 mmHg 55%
    17:00 +26°C° 0 mm 3 mps 768 mmHg 54%
    18:00 +26°C° 0 mm 3 mps 769 mmHg 54%
    19:00 +25°C° 0 mm 3 mps 769 mmHg 53%
    20:00 +26°C° 0 mm 3 mps 769 mmHg 53%
    21:00 +26°C° 0 mm 3 mps 769 mmHg 52%
    22:00 +26°C° 0 mm 3 mps 770 mmHg 52%
    23:00 +26°C° 0 mm 3 mps 769 mmHg 52%

    19 December, Tuesday

    Time Temperature Precipitation Wind Pressure Humidity
    00:00 +26°C° 0 mm 3 mps 769 mmHg 52%
    01:00 +26°C° 0 mm 4 mps 769 mmHg 52%
    02:00 +26°C° 0 mm 4 mps 769 mmHg 52%
    03:00 +26°C° 0 mm 4 mps 769 mmHg 52%
    04:00 +26°C° 0 mm 5 mps 769 mmHg 52%
    05:00 +26°C° 0 mm 5 mps 769 mmHg 52%
    06:00 +26°C° 0 mm 5 mps 770 mmHg 52%
    07:00 +26°C° 0 mm 5 mps 770 mmHg 52%
    08:00 +26°C° 0 mm 4 mps 771 mmHg 51%
    09:00 +26°C° 0 mm 4 mps 771 mmHg 50%
    10:00 +26°C° 0 mm 4 mps 771 mmHg 49%
    11:00 +26°C° 0 mm 4 mps 771 mmHg 49%
    12:00 +26°C° 0 mm 4 mps 771 mmHg 49%
    13:00 +26°C° 0 mm 4 mps 770 mmHg 48%
    14:00 +26°C° 0 mm 4 mps 770 mmHg 49%
    15:00 +26°C° 0 mm 4 mps 769 mmHg 49%
    16:00 +26°C° 0 mm 5 mps 769 mmHg 50%
    17:00 +26°C° 0 mm 5 mps 769 mmHg 49%
    18:00 +26°C° 0 mm 5 mps 770 mmHg 49%
    19:00 +26°C° 0 mm 5 mps 770 mmHg 49%
    20:00 +26°C° 0 mm 5 mps 770 mmHg 49%
    21:00 +26°C° 0 mm 5 mps 770 mmHg 49%
    22:00 +26°C° 0 mm 5 mps 771 mmHg 49%
    23:00 +26°C° 0 mm 4 mps 770 mmHg 49%

    20 December, Wednesday

    Time Temperature Precipitation Wind Pressure Humidity
    00:00 +25°C° 0 mm 4 mps 770 mmHg 49%
    01:00 +25°C° 0 mm 4 mps 770 mmHg 49%
    02:00 +25°C° 0 mm 4 mps 770 mmHg 48%
    03:00 +25°C° 0 mm 4 mps 770 mmHg 48%
    04:00 +25°C° 0 mm 3 mps 770 mmHg 47%
    05:00 +25°C° 0 mm 3 mps 770 mmHg 46%
    06:00 +25°C° 0 mm 3 mps 770 mmHg 45%
    07:00 +25°C° 0 mm 2 mps 770 mmHg 45%
    08:00 +25°C° 0 mm 2 mps 771 mmHg 44%
    09:00 +26°C° 0 mm 2 mps 771 mmHg 44%
    10:00 +26°C° 0 mm 2 mps 772 mmHg 43%
    11:00 +26°C° 0 mm 2 mps 771 mmHg 43%
    12:00 +26°C° 0 mm 2 mps 771 mmHg 43%
    13:00 +26°C° 0 mm 1 mps 770 mmHg 43%
    14:00 +26°C° 0 mm 1 mps 770 mmHg 43%
    15:00 +26°C° 0 mm 1 mps 770 mmHg 43%
    16:00 +26°C° 0 mm 1 mps 770 mmHg 44%
    17:00 +26°C° 0 mm 2 mps 770 mmHg 44%
    18:00 +26°C° 0 mm 2 mps 770 mmHg 45%
    19:00 +26°C° 0 mm 2 mps 771 mmHg 46%
    20:00 +26°C° 0 mm 2 mps 771 mmHg 46%
    21:00 +26°C° 0 mm 2 mps 771 mmHg 47%
    22:00 +26°C° 0 mm 2 mps 771 mmHg 47%
    23:00 +26°C° 0 mm 2 mps 771 mmHg 47%
    Show more